Home   Weather   Hangzhou   Past weeks

Flag for China Past Weather in Hangzhou, Zhejiang, China — Yesterday and Last 2 Weeks

72 °F

Rain showers. Fog.

Feels Like: 65 °F
Forecast: 71 / 74 °F
Wind: 3 mph from East

Location: Hangzhou Airport

Current Time: Oct 22, 2016 at 7:51:22 AM

Latest Report: Oct 22, 2016 at 7:30 AM

Visibility: 2 mi

Pressure: 29.83 "Hg

Humidity: 100%

Dew Point: 72 °F

Location of HangzhouLocation

Past Weather in Hangzhou — Graph


Hangzhou Temperature Yesterday

Maximum temperature yesterday: 75 °F (at 9:30 AM)
Minimum temperature yesterday: 72 °F (at 12:00 AM)
Average temperature yesterday: 73 °F

High & Low Weather Summary for the Past Weeks

High81 °F (Oct 16, 12:30 PM)100% (Oct 7, 10:00 AM)30.21 "Hg (Oct 7, 10:00 AM)
Low59 °F (Oct 10, 5:00 AM)47% (Oct 9, 12:30 PM)29.77 "Hg (Oct 21, 1:30 PM)
Average70 °F83%30.05 "Hg
* Reported Oct 7 6:00 AM — Oct 22 6:30 AM, Hangzhou, Weather by CustomWeather, © 2016

Note: Actual official high and low records may vary slightly from our data, if they occured in-between our weather recording intervals... More about our weather records


Hangzhou Weather History for the Previous 24 Hours

Scroll right to see more
Time TempWeatherWind HumidityBarometerVisibility
6:30 AM
Sat, Oct 22
72 °FLight rain. Partly sunny.3 mph94%29.83 "Hg4 mi
6:00 AM72 °FRain. Fog.No wind94%29.83 "Hg1 mi
5:30 AM72 °FLight rain. Fog.3 mph94%29.80 "Hg2 mi
5:00 AM72 °FLight rain. Fog.3 mph94%29.80 "Hg2 mi
4:30 AM72 °FLight rain. Fog.3 mph94%29.80 "Hg2 mi
4:00 AM72 °FLight rain. Fog.3 mph94%29.80 "Hg2 mi
3:30 AM72 °FLight rain. Fog.3 mph94%29.80 "Hg2 mi
3:00 AM72 °FLight rain. Fog.3 mph94%29.80 "Hg2 mi
2:30 AM72 °FLight rain. Fog.3 mph94%29.83 "Hg1 mi
2:00 AM72 °FSprinkles. Fog.3 mph94%29.83 "Hg1 mi
1:30 AM72 °FLight rain. Fog.3 mph94%29.83 "Hg2 mi
1:00 AM72 °FLight rain. Fog.3 mph94%29.83 "Hg1 mi
12:30 AM72 °FDrizzle. Fog.6 mph100%29.83 "Hg1 mi
12:00 AM72 °FFog.3 mph100%29.83 "Hg1 mi
11:30 PM
Fri, Oct 21
72 °FLight rain. Fog.3 mph100%29.83 "Hg2 mi
11:00 PM72 °FLight rain. Fog.3 mph100%29.83 "Hg2 mi
10:30 PM72 °FFog.3 mph100%29.83 "Hg2 mi
10:00 PM72 °FLight rain. Fog.3 mph100%29.83 "Hg2 mi
9:30 PM72 °FLight rain. Passing clouds.6 mph100%29.83 "Hg4 mi
9:00 PM72 °FLight rain. Fog.8 mph100%29.83 "Hg2 mi
8:30 PM73 °FLight rain. Fog.1 mph94%29.83 "Hg1 mi
8:00 PM73 °FLight rain. Fog.3 mph94%29.83 "Hg1 mi
7:30 PM73 °FLight rain. Fog.3 mph94%29.83 "Hg1 mi
7:00 PM73 °FLight rain. Fog.3 mph94%29.80 "Hg2 mi
6:30 PM73 °FLight rain. Fog.3 mph94%29.80 "Hg2 mi
6:00 PM73 °FLight rain. Fog.3 mph100%29.80 "Hg2 mi
5:30 PM73 °FLight rain. Fog.6 mph100%29.80 "Hg1 mi
5:00 PM73 °FLight rain. Fog.6 mph100%29.77 "Hg1 mi
4:30 PM73 °FLight rain. Fog.6 mph100%29.77 "Hg1 mi
4:00 PM73 °FLight rain. Fog.6 mph100%29.77 "Hg1 mi
3:30 PM73 °FLight rain. Fog.8 mph100%29.77 "Hg1 mi
3:00 PM73 °FLight rain. Fog.6 mph100%29.77 "Hg1 mi
2:30 PM75 °FLight rain. Fog.8 mph94%29.77 "Hg2 mi
2:00 PM75 °FLight rain. Fog.6 mph94%29.77 "Hg2 mi
1:30 PM75 °FLight rain. Fog.6 mph94%29.77 "Hg2 mi
1:00 PM75 °FLight rain. Fog.6 mph94%29.80 "Hg2 mi
12:30 PM75 °FLight rain. Fog.8 mph94%29.80 "Hg2 mi
12:00 PM75 °FBroken clouds.8 mph94%29.83 "Hg4 mi
11:30 AM75 °FBroken clouds.6 mph94%29.83 "Hg4 mi
11:00 AM75 °FBroken clouds.6 mph94%29.86 "Hg4 mi
10:30 AM75 °FBroken clouds.6 mph94%29.86 "Hg4 mi
10:00 AM75 °FBroken clouds.6 mph94%29.89 "Hg4 mi
9:30 AM75 °FBroken clouds.8 mph94%29.89 "Hg4 mi
9:00 AM73 °FLight rain. Broken clouds.6 mph100%29.89 "Hg4 mi
8:30 AM73 °FBroken clouds.8 mph94%29.89 "Hg4 mi
8:00 AM73 °FBroken clouds.6 mph94%29.89 "Hg5 mi
7:30 AM73 °FLight rain. Broken clouds.8 mph94%29.89 "Hg5 mi
7:00 AM72 °FLight rain. Fog.6 mph100%29.89 "Hg3 mi
Weather by CustomWeather, © 2016

See weather overviewHow to use our weather pages